Regional Weather Roundup
Issued by NWS

Home | Current Version | Previous Version | Graphics & Text | Print | Product List | Glossary On
Versions: 1 2 3 4 5 6 7 8 9 10 11 12 13 14 15 16 17 18 19 20 21 22 23 24 25 26 27 28 29 30 31 32 33 34 35 36 37 38 39 40 41 42 43 44 45 46 47 48 49 50
000
ASUS45 KBOI 250210
RWRID

IDAHO REGIONAL WEATHER ROUNDUP
NATIONAL WEATHER SERVICE BOISE ID
800 PM MDT SAT SEP 24 2016

NOTE: "FAIR" INDICATES FEW OR NO CLOUDS BELOW 12000 FEET
WITH NO SIGNIFICANT WEATHER AND/OR OBSTRUCTIONS TO VISIBILITY

IDZ012-014-250300-
SOUTHWEST IDAHO


CITY           SKY/WX    TMP DP  RH WIND       PRES   REMARKS
BOISE          CLEAR     62  30  29 NW5       30.29S
CALDWELL       CLEAR     63  33  32 N5        30.29S
MOUNTAIN HOME  CLEAR     62  33  34 NW13      30.28S
$$

IDZ016-017-250300-
SOUTHCENTRAL IDAHO


CITY           SKY/WX    TMP DP  RH WIND       PRES   REMARKS
BURLEY         CLEAR     50  39  66 SW8       30.31R
JEROME         CLEAR     53  35  50 SW10      30.30R
TWIN FALLS     CLEAR     52  35  52 SW9       30.32R
$$

IDZ019>023-250300-
SOUTHEAST IDAHO


CITY           SKY/WX    TMP DP  RH WIND       PRES   REMARKS
IDAHO FALLS    CLEAR     55  41  59 S16       30.30R
POCATELLO      PTCLDY    55  37  50 SW18      30.33R
REXBURG        PTCLDY    55  42  61 S7        30.30R
$$

IDZ006-010-011-018-031-032-250300-
CENTRAL IDAHO MOUNTAINS


CITY           SKY/WX    TMP DP  RH WIND       PRES   REMARKS
MCCALL         CLEAR     53  32  44 CALM      30.33R
HAILEY         CLEAR     52  43  71 SE8       30.30R
STANLEY          N/A     45  29  53 CALM      30.35R
SALMON         CLEAR     52  34  50 CALM      30.32R
CHALLIS        CLEAR     53  28  38 W6        30.29R
$$

IDZ002-004-006-007-026-250300-
NORTHERN IDAHO


CITY           SKY/WX    TMP DP  RH WIND       PRES   REMARKS
LEWISTON       CLEAR     65  37  35 NW7       30.30R
LOWELL           N/A     53  46  77 CALM      30.34R
COEUR D`ALENE  NOT AVBL
MULLAN PASS    CLEAR     39  34  82 NW5       30.37R
$$



USA.gov is the U.S. government's official web portal to all federal, state and local government web resources and services.